Hourly Data Report for October 15, 2016

All times are specified in Local Standard Time (LST). Add 1 hour to adjust for Daylight Saving Time where and when it is observed.

KUGAARUK CLIMATE
NUNAVUT

68°32'15.060" N
89°47'47.020" W
15.80 m
2303094
71407
NBB

Download Data

Hourly Data (October 2016)
Hourly Data Report for October 15, 2016
Temp Definition
°C
Dew Point Temp Definition
°C
Rel Hum Definition
%
Wind Dir Definition
10's deg

Wind Spd Definition
km/h
Visibility Definition
km
Stn Press Definition
kPa
Hmdx Definition


Wind Chill Definition


Weather Definition


TIME
00:00 -7.8 -9.5 87 24 21   100.69   -15 LegendNANA
01:00 -7.9 -9.7 87 23 22   100.71   -16 LegendNANA
02:00 -8.0 -10.2 84 24 20   100.72   -15 LegendNANA
03:00 -8.8 -11.2 83 25 23   100.73   -17 LegendNANA
04:00 -9.8 -12.0 84 23 21   100.72   -18 LegendNANA
05:00 -10.9 -13.0 84 22 26   100.71   -20 LegendNANA
06:00 -11.5 -13.8 83 23 25   100.69   -21 LegendNANA
07:00 -12.0 -14.6 81 22 30   100.69   -22 LegendNANA
08:00 -12.5 -15.1 80 22 31   100.72   -23 LegendNANA
09:00 -12.4 -15.1 80 22 30   100.74   -23 LegendNANA
10:00 -11.8 -14.8 78 22 28   100.74   -22 LegendNANA
11:00 -11.7 -14.6 79 22 28   100.76   -21 LegendNANA
12:00 -10.0 -12.6 81 23 24   100.78   -19 LegendNANA
13:00 -9.4 -12.1 81 24 29   100.80   -19 LegendNANA
14:00 -9.3 -12.4 78 25 30   100.80   -19 LegendNANA
15:00 -9.5 -12.6 78 25 37   100.80   -20 LegendNANA
16:00 -9.7 -12.6 79 23 36   100.79   -20 LegendNANA
17:00 -10.8 -13.7 79 22 33   100.80   -21 LegendNANA
18:00 -10.8 -13.6 80 21 27   100.83   -20 LegendNANA
19:00 -10.2 -12.5 83 21 23   100.83   -19 LegendNANA
20:00 -9.9 -12.2 83 21 21   100.83   -18 LegendNANA
21:00 -9.3 -11.5 84 21 27   100.83   -18 LegendNANA
22:00 -7.9 -10.3 83 23 33   100.81   -17 LegendNANA
23:00 -8.0 -9.8 87 23 41   100.81   -18 LegendNANA

Notes on Data Quality.

Legend

  • E = Estimated
  • M = Missing
  • NA = Not Available
  • ‡ = Partner data that is not subject to review by the National Climate Archives
Date modified: